Regional Weather Roundup
Issued by NWS

Home | Current Version | Previous Version | Text Only | Print | Product List | Glossary On
Versions: 1 2 3 4 5 6 7 8 9 10 11 12 13 14 15 16 17 18 19 20 21 22 23 24 25 26 27 28 29 30 31 32 33 34 35 36 37 38 39 40 41 42 43 44 45 46 47 48 49 50
000
ASUS44 KFWD 022210
RWRTX
NORTH TEXAS HOURLY WEATHER ROUNDUP
NATIONAL WEATHER SERVICE FORT WORTH TX
500 PM CDT TUE SEP 02 2014

NOTE: "FAIR" INDICATES FEW OR NO CLOUDS BELOW 12,000 FEET WITH NO
SIGNIFICANT WEATHER AND/OR OBSTRUCTIONS TO VISIBILITY.

TXZ118-119-022300-
DALLAS/FORT WORTH METROPLEX

CITY           SKY/WX    TMP DP  RH WIND       PRES   REMARKS
DFW AIRPORT    MOSUNNY   96  67  38 S14       29.88F HX 100
DALLAS LOVE    MOSUNNY   96  68  39 SE15G24   29.89F HX 101
FTW MEACHAM    MOSUNNY   98  67  36 SE14      29.88F HX 102
DAL-EXECUTIVE  MOSUNNY   99  66  33 S6G17     29.89F HX 103
FTW-ALLIANCE   MOSUNNY   96  67  38 S10       29.88F HX 100
FTW-NAS-JRB    MOSUNNY  100  63  29 S14       29.92F HX 102
FTW-SPINKS     MOSUNNY   95  68  41 SE9       29.91F HX  99
ARLINGTON      SUNNY     95  66  38 SE15      29.89F HX  98
GRAND PRAIRIE  SUNNY     97  63  32 SE9       29.90F HX  98
ADDISON        PTSUNNY   97  64  34 E16       29.90  HX  99
MESQUITE       MOSUNNY   95  64  36 E12       29.90F HX  97
LANCASTER      MOSUNNY   96  65  36 SE9       29.91F HX  98
$$

TXZ091>094-102>105-117-120-121-131>134-022300-
NORTH CENTRAL TEXAS

CITY           SKY/WX    TMP DP  RH WIND       PRES   REMARKS
SHRMAN/DENISON SUNNY     92  68  46 E13G20    29.92F HX  96
GAINESVILLE    SUNNY     92  70  48 SE15      29.92F HX  98
BOWIE          MOSUNNY   93  68  43 SE9G18    29.90F HX  97
BRIDGEPORT     MOSUNNY   95  61  32 S13G18    29.90F HX  95
DECATUR        MOSUNNY   93  64  37 SE15      29.90F HX  94
DENTON         SUNNY     95  67  39 SE15G22   29.89F HX  99
MCKINNEY       SUNNY     94  69  44 SE15G22   29.90F HX  99
GREENVILLE     SUNNY     91  66  43 E12       29.93R HX  94
ROCKWALL       MOSUNNY   96  70  42 S10G16    29.89F HX 102
TERRELL        MOSUNNY   96  67  38 SE13      29.91F HX 100
WAXAHACHIE     MOSUNNY   96  62  32 SE6       29.91F HX  97
GRANBURY       MOSUNNY   98  64  32 S14G23    29.89F HX 100
$$

TXZ083>090-098>101-113>116-127>130-139>142-154-155-022300-
WESTERN NORTH TEXAS

CITY           SKY/WX    TMP DP  RH WIND       PRES   REMARKS
WICHITA FALLS  PTSUNNY   98  65  33 SE18G28   29.85F HX 101
WF-KICKAPOO    MOSUNNY   99  61  28 SE16G24   29.87F HX  99
VERNON         SUNNY    100  59  25 SE20      29.85F HX  99
ABILENE        MOSUNNY   98  64  32 S15G24    29.90F HX 100
ABILENE-DYESS  SUNNY     97  65  34 SE13G22   29.89F HX  99
BRECKENRIDGE   MOSUNNY   97  61  31 SE16      29.88F HAZE    HX  97
GRAHAM         MOSUNNY   98  63  31 SE14      29.86F HX  99
MINERAL WELLS  SUNNY     93  66  40 SE16G22   29.87F HX  96
STEPHENVILLE   SUNNY     94  63  35 S12       29.94F HX  95
COMANCHE         N/A     99  60  27 S9G16     29.92F HX  99
BROWNWOOD      MOSUNNY   95  63  34 SE10G20   29.90F HX  96
COLEMAN        SUNNY     95  59  29 S14G24    29.91F HX  94
BRADY          MOSUNNY   91  61  35 SE9       29.92F HX  91
$$

TXZ143>147-156>162-174-175-022300-
CENTRAL TEXAS

CITY           SKY/WX    TMP DP  RH WIND       PRES   REMARKS
WACO           MOSUNNY   97  68  38 S8        29.89F HX 102
WACO-TSTC      MOSUNNY   99  66  34 S10       29.89  HX 102
WACO-MCGREGOR  MOSUNNY   97  66  36 S14G20    29.89F HX 100
HILLSBORO      SUNNY     97  65  34 SE14      29.90F HX  99
CORSICANA      SUNNY     95  69  42 E13       29.92F HX 100
MEXIA          MOSUNNY   92  72  52 E14G20    29.91F HX 100
HEARNE           N/A     91  72  54 SE9       29.92F HX  97
CAMERON        PTSUNNY   92  72  51 S9        29.90F HX  99
TEMPLE         PTSUNNY   91  68  46 SE20G29   29.90F HX  95
KILLEEN        PTSUNNY   93  66  40 SE10      29.89F HX  96
KILLEEN-SKYLRK PTSUNNY   88  70  55 SE9G28    29.91R HX  92
FORT HOOD      MOSUNNY   93  68  43 SE17G30   29.89F HX  97
GATESVILLE     MOSUNNY   97  66  36 SE7       29.92F HX 100
HAMILTON       PTSUNNY   97  63  32 SE17      29.92F HX  98
LAMPASAS       MOSUNNY   96  69  41 S6        29.91S HX 101
$$

TXZ095>097-106>112-122>126-135>138-148>153-164>167-022300-
EAST TEXAS

CITY           SKY/WX    TMP DP  RH WIND       PRES   REMARKS
PARIS          SUNNY     90  63  40 SE16      29.94F HX  90
SULPHUR SPRNGS SUNNY     91  67  43 E12       29.96S HX  94
MOUNT PLEASANT MOSUNNY   91  67  44 SE10      29.96R HX  94
GILMER           N/A     77  77 100 SE5       29.98F
MINEOLA        MOSUNNY   90  70  51 E7        29.95S HX  95
TYLER          PTSUNNY   84  73  69 SE13G22   29.96S HX  90
LONGVIEW       CLOUDY    77  71  82 E7        29.98S
MARSHALL       CLOUDY    78  75  88 CALM      30.02S
ATHENS           N/A     88  72  58 SE13G18   29.94S HAZE    HX  94
PALESTINE      CLOUDY    77  75  93 E3        29.96F
JACKSONVILLE   CLOUDY    81  73  77 SE6       30.00F
HENDERSON      CLOUDY    75  74  97 SE6       29.98F
NACOGDOCHES    CLOUDY    75  73  94 E6        30.00R
LUFKIN         LGT RAIN  80  75  84 NE8       29.99F
$$

SUPPLEMENTAL OBSERVATIONS (CENTRAL)

CITY           SKY/WX    TMP DP  RH WIND       PRES   REMARKS
CADDO GRASSLND   N/A     91  63  38 SE9G17      N/A  HX  92
PAT MAYSE LAKE   N/A     88  63  42 SE13        N/A
GREENVILLE       N/A     91  66  43 E10         N/A  HX  94
CEDAR HILL       N/A     99  66  34 SE8G17      N/A  HX 102
PALESTINE        N/A     75  72  88 E2          N/A
MCGREGOR         N/A     95  68  41 SE8         N/A  HX  99
TEMPLE           N/A     90  70  51 S13G29      N/A  HX  95
$$

SUPPLEMENTAL OBSERVATIONS (WEST)

CITY           SKY/WX    TMP DP  RH WIND       PRES   REMARKS
MILLERS CREEK    N/A     97  64  34 SE15G24     N/A  HX  99
POSSUM KINGDOM   N/A     97  63  32 S12         N/A  HX  98
LBJ GRASSLAND    N/A     95  66  38 SE13        N/A  HX  98
GRANBURY         N/A     99  64  32 S15G23      N/A  HX 101
HAMBY            N/A     97  64  34 SE12G22     N/A  HX  99
IVIE RESERVOIR   N/A     97  61  30 SE13        N/A  HX  97
COLORADO BEND    N/A     97  63  32 SE10G18     N/A  HX  98
$$

SUPPLEMENTAL OBSERVATIONS (EAST)

CITY           SKY/WX    TMP DP  RH WIND       PRES   REMARKS
CLARKSVILLE      N/A     91  68  46 SE12        N/A  HX  95
TEXARKANA        N/A     81  70  69 S8G16       N/A
LINDEN           N/A     79  72  78 E3G17       N/A
GILMER           N/A     79  73  83 SE3G18      N/A
HENDERSON        N/A     75  72  88 S2G10       N/A
LUFKIN           N/A     79  75  89 MISG        N/A
$$

SUPPLEMENTAL OBSERVATIONS ARE A COLLECTION OF AUTOMATED INSTRUMENTS
THAT ARE MAINTAINED BY A VARIETY OF FEDERAL AND STATE AGENCIES.
CERTAIN ELEMENTS...SUCH AS HUMIDITY VALUES AND SUSTAINED WIND
SPEEDS...MAY BE APPROXIMATED.



USA.gov is the U.S. government's official web portal to all federal, state and local government web resources and services.